Back to catalog

FENGYUN 1C DEB

AliveSSO
NORAD 30214·DEBRIS·🇨🇳 China

Launched May 10, 1999 from Taiyuan Satellite Launch Center

Loading…

Next Passes (next 24 hours)

TLE

FreshSource: Space-Track

Epoch: Sep 14, 2026, 11:49 UTC

1 30214U 99025VX  26257.49248660  .00002006  00000-0  75136-3 0  9999
2 30214  98.7093 336.8346 0019415 309.7415 172.5253 14.32771651 14478

Track FENGYUN 1C DEB in real time with AllMySat

Download on the App Store